Location: Seminole
(32.7190°N, 102.6440°W)
Time: 05:00:42
(UTC-05:00)

Meteor 2-10 - Visible Passes

Search period start: 28 May 2015 00:00
Search period end: 07 June 2015 00:00
Orbit: 738 x 870 km, 81.2° (Epoch: 27 May)

Date Brightness Start Highest point End Pass type
(mag) Time Alt. Az. Time Alt. Az. Time Alt. Az.
28 May 5.4 03:57:01 10° N 04:01:56 36° ENE 04:05:24 19° SE visible
28 May 5.4 05:39:35 10° NW 05:43:43 22° W 05:46:22 15° SW visible
29 May 6.0 03:31:34 10° NNE 03:35:52 25° ENE 03:38:58 16° ESE visible
29 May 4.9 05:13:02 10° NNW 05:17:51 32° W 05:19:57 24° SW visible
30 May 6.5 03:06:27 10° NE 03:09:42 16° ENE 03:12:37 12° ESE visible
30 May 4.4 04:46:44 10° NNW 04:51:58 49° W 04:53:36 38° SW visible
31 May 6.8 02:42:33 10° ENE 02:43:28 11° ENE 02:44:50 10° E visible
31 May 4.0 04:20:38 10° NNW 04:26:04 75° W 04:27:19 54° SSW visible
01 Jun 4.2 03:54:41 10° N 04:00:08 73° E 04:01:06 59° SE visible
01 Jun 6.1 05:40:33 10° WNW 05:41:37 10° W 05:42:06 10° W visible
02 Jun 4.8 03:28:53 10° N 03:34:10 48° ENE 03:34:56 45° ESE visible
02 Jun 5.7 05:12:17 10° NW 05:15:48 17° W 05:15:56 17° W visible
03 Jun 5.5 03:03:16 10° NNE 03:08:08 32° ENE 03:08:49 31° E visible
03 Jun 5.3 04:45:27 10° NW 04:49:49 25° W 04:49:49 25° W visible
04 Jun 6.0 02:37:54 10° NNE 02:42:01 22° ENE 02:42:44 22° E visible
04 Jun 4.8 04:19:01 10° NNW 04:23:44 37° W 04:23:44 37° W visible
05 Jun 6.5 02:12:58 10° NE 02:15:50 15° ENE 02:16:41 14° E visible
05 Jun 4.4 03:52:47 10° NNW 03:57:41 55° WNW 03:57:41 55° WNW visible
06 Jun 4.3 03:26:45 10° N 03:31:41 71° NNW 03:31:41 71° NNW visible
